Terminal Aerodrome Forecast
Issued by NWS

Home | Current Version | Previous Version | Text Only | Print | Product List | Glossary On
Versions: 1 2 3 4 5 6 7 8 9 10 11 12 13 14 15 16 17 18
000
FTUS45 KFGZ 301700
TAFPRC
TAF
KPRC 301720Z 3018/3118 19005KT P6SM FEW080
     FM302000 25011G17KT P6SM BKN080
     FM310300 20005KT P6SM FEW100=

USA.gov is the U.S. government's official web portal to all federal, state and local government web resources and services.